timestamp,wind_dir_avg,wind_spd_avg,wind_spd_max_dir,wind_spd_gust,battery_voltage,lat,long
2023-01-04 00:04:00+00:00,313.0,4.09,314.0,4.82,12.41,47.59359,-54.27349
2023-01-04 00:14:00+00:00,309.0,4.62,310.0,5.2,12.41,47.59359,-54.27349
2023-01-04 00:24:00+00:00,302.0,4.27,312.0,4.91,12.41,47.59359,-54.27349
2023-01-04 00:34:00+00:00,285.0,7.31,283.0,8.33,12.41,47.59359,-54.27349
2023-01-04 00:44:00+00:00,305.0,6.24,308.0,7.45,12.41,47.59359,-54.27349
2023-01-04 00:54:00+00:00,317.0,5.25,320.0,6.12,12.41,47.59359,-54.27349
2023-01-04 01:04:00+00:00,306.0,5.3,312.0,6.92,12.41,47.59359,-54.27349
2023-01-04 01:14:00+00:00,296.0,4.52,293.0,5.14,12.41,47.59359,-54.27349
2023-01-04 01:24:00+00:00,309.0,4.5,313.0,5.91,12.41,47.59359,-54.27349
2023-01-04 01:34:00+00:00,303.0,3.86,313.0,4.94,12.41,47.59359,-54.27349
2023-01-04 01:44:00+00:00,283.0,3.84,286.0,4.13,12.41,47.59359,-54.27349
2023-01-04 01:54:00+00:00,295.0,4.48,301.0,5.33,12.41,47.59359,-54.27349
2023-01-04 02:04:00+00:00,307.0,6.7,300.0,8.71,12.41,47.59359,-54.27349
2023-01-04 02:14:00+00:00,304.0,5.34,300.0,6.13,12.33,47.59359,-54.27349
2023-01-04 02:24:00+00:00,293.0,5.04,290.0,6.4,12.33,47.59359,-54.27349
2023-01-04 02:34:00+00:00,297.0,4.08,292.0,5.24,12.33,47.59359,-54.27349
2023-01-04 02:44:00+00:00,287.0,4.84,288.0,5.46,12.33,47.59359,-54.27349
2023-01-04 02:54:00+00:00,263.0,4.61,256.0,5.41,12.33,47.59359,-54.27349
2023-01-04 03:04:00+00:00,300.0,3.11,299.0,3.74,12.33,47.59359,-54.27349
2023-01-04 03:14:00+00:00,262.0,3.4,262.0,3.95,12.33,47.59359,-54.27349
2023-01-04 03:24:00+00:00,273.0,4.46,279.0,5.04,12.33,47.59359,-54.27349
2023-01-04 03:34:00+00:00,304.0,2.9,301.0,3.61,12.33,47.59359,-54.27349
2023-01-04 03:44:00+00:00,300.0,2.08,302.0,2.7,12.33,47.59359,-54.27349
2023-01-04 03:54:00+00:00,291.0,2.22,286.0,2.52,12.33,47.59359,-54.27349
2023-01-04 04:04:00+00:00,276.0,2.26,277.0,2.92,12.33,47.59359,-54.27349
2023-01-04 04:14:01+00:00,254.0,2.71,255.0,3.01,12.33,47.59359,-54.27349
2023-01-04 04:24:01+00:00,222.0,3.13,229.0,3.81,12.33,47.59359,-54.27349
2023-01-04 04:34:01+00:00,232.0,3.23,226.0,3.71,12.33,47.59359,-54.27349
2023-01-04 04:44:01+00:00,208.0,4.37,210.0,5.25,12.33,47.59359,-54.27349
2023-01-04 04:54:01+00:00,218.0,4.19,219.0,5.9,12.33,47.59359,-54.27349
2023-01-04 05:04:01+00:00,216.0,4.66,218.0,5.4,12.33,47.59359,-54.27349
2023-01-04 05:14:00+00:00,222.0,6.1,230.0,7.52,12.33,47.59359,-54.27349
2023-01-04 05:24:00+00:00,219.0,6.09,219.0,6.6,12.33,47.59359,-54.27349
2023-01-04 05:34:00+00:00,220.0,4.66,223.0,5.4,12.33,47.59359,-54.27349
2023-01-04 05:44:00+00:00,220.0,5.52,217.0,6.16,12.33,47.59359,-54.27349
2023-01-04 05:54:00+00:00,229.0,4.8,224.0,5.65,12.33,47.59359,-54.27349
2023-01-04 06:04:00+00:00,226.0,6.91,236.0,9.58,12.33,47.59359,-54.27349
2023-01-04 06:14:00+00:00,242.0,9.34,242.0,11.23,12.25,47.59359,-54.27349
2023-01-04 06:24:00+00:00,237.0,8.5,242.0,10.77,12.25,47.59359,-54.27349
2023-01-04 06:34:00+00:00,218.0,5.66,217.0,6.39,12.25,47.59359,-54.27349
2023-01-04 06:44:00+00:00,218.0,6.57,235.0,8.04,12.25,47.59359,-54.27349
2023-01-04 06:54:00+00:00,216.0,7.27,239.0,10.3,12.25,47.59359,-54.27349
2023-01-04 07:04:00+00:00,237.0,9.03,239.0,11.08,12.25,47.59359,-54.27349
2023-01-04 07:14:00+00:00,225.0,6.43,241.0,9.26,12.25,47.59359,-54.27349
2023-01-04 07:24:00+00:00,226.0,7.0,239.0,10.46,12.25,47.59359,-54.27349
2023-01-04 07:34:00+00:00,233.0,5.85,247.0,9.52,12.25,47.59359,-54.27349
2023-01-04 07:44:00+00:00,240.0,8.78,251.0,11.32,12.25,47.59359,-54.27349
2023-01-04 07:54:00+00:00,237.0,11.33,239.0,12.11,12.25,47.59359,-54.27349
2023-01-04 08:04:00+00:00,240.0,10.61,239.0,12.05,12.25,47.59359,-54.27349
2023-01-04 08:14:00+00:00,241.0,10.75,241.0,11.73,12.33,47.59359,-54.27349
2023-01-04 08:24:00+00:00,236.0,7.94,241.0,10.98,12.33,47.59359,-54.27349
2023-01-04 08:34:00+00:00,225.0,5.68,224.0,7.0,12.33,47.59359,-54.27349
2023-01-04 08:44:00+00:00,235.0,8.54,241.0,11.08,12.33,47.59359,-54.27349
2023-01-04 08:54:00+00:00,241.0,9.59,241.0,11.14,12.33,47.59359,-54.27349
2023-01-04 09:04:00+00:00,222.0,5.93,237.0,7.8,12.33,47.59359,-54.27349
2023-01-04 09:14:00+00:00,228.0,4.82,222.0,5.43,12.25,47.59359,-54.27349
2023-01-04 09:24:00+00:00,216.0,6.95,233.0,8.58,12.25,47.59359,-54.27349
2023-01-04 09:34:00+00:00,236.0,9.16,239.0,11.98,12.25,47.59359,-54.27349
2023-01-04 09:44:00+00:00,235.0,10.11,235.0,11.91,12.25,47.59359,-54.27349
2023-01-04 09:54:00+00:00,214.0,10.46,224.0,12.13,12.25,47.59359,-54.27349
2023-01-04 10:04:00+00:00,223.0,10.98,219.0,13.27,12.25,47.59359,-54.27349
2023-01-04 10:14:00+00:00,226.0,11.36,227.0,12.94,12.25,47.59359,-54.27349
2023-01-04 10:24:00+00:00,222.0,12.22,222.0,14.14,12.25,47.59359,-54.27349
2023-01-04 10:34:00+00:00,222.0,12.33,222.0,13.96,12.25,47.59359,-54.27349
2023-01-04 10:44:00+00:00,219.0,12.87,216.0,13.95,12.25,47.59359,-54.27349
2023-01-04 10:54:00+00:00,218.0,12.01,223.0,13.7,12.25,47.59359,-54.27349
2023-01-04 11:04:00+00:00,209.0,12.74,218.0,15.19,12.25,47.59359,-54.27349
2023-01-04 11:14:00+00:00,214.0,12.11,219.0,13.86,12.25,47.59359,-54.27349
2023-01-04 11:24:00+00:00,219.0,12.37,224.0,13.76,12.25,47.59359,-54.27349
2023-01-04 11:34:00+00:00,213.0,11.71,222.0,13.78,12.25,47.59359,-54.27349
2023-01-04 11:44:00+00:00,205.0,12.02,212.0,13.91,12.25,47.59359,-54.27349
2023-01-04 11:54:00+00:00,210.0,12.77,217.0,14.72,12.25,47.59359,-54.27349
2023-01-04 12:04:00+00:00,211.0,11.51,218.0,13.3,12.25,47.59359,-54.27349
2023-01-04 13:14:00+00:00,213.0,11.62,213.0,13.42,12.25,47.59359,-54.27349
2023-01-04 13:24:00+00:00,216.0,10.24,210.0,12.89,12.25,47.59359,-54.27349
2023-01-04 13:34:00+00:00,215.0,11.65,212.0,12.89,12.25,47.59359,-54.27349
2023-01-04 13:44:00+00:00,215.0,11.65,209.0,13.17,12.25,47.59359,-54.27349
2023-01-04 13:54:00+00:00,217.0,12.27,217.0,14.23,12.25,47.59359,-54.27349
2023-01-04 14:04:00+00:00,214.0,11.72,211.0,13.94,12.25,47.59359,-54.27349
2023-01-04 14:14:00+00:00,215.0,11.11,213.0,12.98,12.41,47.59359,-54.27349
2023-01-04 14:24:00+00:00,216.0,11.37,218.0,12.88,12.41,47.59359,-54.27349
2023-01-04 14:34:00+00:00,216.0,9.64,216.0,10.52,12.41,47.59359,-54.27349
2023-01-04 14:44:00+00:00,218.0,10.73,219.0,13.19,12.41,47.59359,-54.27349
2023-01-04 14:54:00+00:00,217.0,10.96,216.0,12.09,12.41,47.59359,-54.27349
2023-01-04 15:04:00+00:00,215.0,12.08,214.0,13.14,12.41,47.59359,-54.27349
2023-01-04 15:14:00+00:00,218.0,11.38,215.0,13.21,12.65,47.59359,-54.27349
2023-01-04 15:24:00+00:00,221.0,10.59,221.0,11.99,12.65,47.59359,-54.27349
2023-01-04 15:34:00+00:00,224.0,11.08,230.0,13.0,12.65,47.59359,-54.27349
2023-01-04 15:44:00+00:00,218.0,10.65,216.0,12.38,12.65,47.59359,-54.27349
2023-01-04 15:54:00+00:00,223.0,9.84,221.0,11.73,12.65,47.59359,-54.27349
2023-01-04 16:04:00+00:00,221.0,10.48,218.0,12.36,12.65,47.59359,-54.27349
2023-01-04 16:14:00+00:00,217.0,10.27,221.0,12.04,12.65,47.59359,-54.27349
2023-01-04 16:24:00+00:00,218.0,10.88,217.0,12.38,12.65,47.59359,-54.27349
2023-01-04 16:34:00+00:00,218.0,11.13,215.0,12.79,12.65,47.59359,-54.27349
2023-01-04 16:44:00+00:00,214.0,11.1,214.0,13.12,12.65,47.59359,-54.27349
2023-01-04 16:54:00+00:00,217.0,10.45,217.0,11.71,12.65,47.59359,-54.27349
2023-01-04 17:04:00+00:00,213.0,9.56,216.0,10.53,12.65,47.59359,-54.27349
2023-01-04 17:14:00+00:00,212.0,9.6,206.0,11.06,12.65,47.59359,-54.27349
2023-01-04 17:24:00+00:00,215.0,9.91,217.0,11.03,12.65,47.59359,-54.27349
2023-01-04 17:34:00+00:00,209.0,9.16,206.0,10.98,12.65,47.59359,-54.27349
2023-01-04 17:44:00+00:00,210.0,9.06,215.0,9.96,12.65,47.59359,-54.27349
2023-01-04 17:54:00+00:00,214.0,8.54,214.0,9.77,12.65,47.59359,-54.27349
2023-01-04 18:04:00+00:00,212.0,8.54,211.0,10.23,12.65,47.59359,-54.27349
2023-01-04 20:14:00+00:00,226.0,6.37,221.0,7.54,12.33,47.59359,-54.27349
2023-01-04 20:24:00+00:00,222.0,6.56,224.0,7.11,12.33,47.59359,-54.27349
2023-01-04 20:34:00+00:00,226.0,6.15,229.0,7.09,12.33,47.59359,-54.27349
2023-01-04 20:44:00+00:00,227.0,6.86,229.0,7.87,12.33,47.59359,-54.27349
2023-01-04 20:54:00+00:00,229.0,6.22,222.0,6.98,12.33,47.59359,-54.27349
2023-01-04 21:04:00+00:00,229.0,7.24,228.0,8.46,12.33,47.59359,-54.27349
2023-01-04 21:14:00+00:00,227.0,6.78,228.0,7.58,12.25,47.59359,-54.27349
2023-01-04 21:24:00+00:00,228.0,6.01,227.0,6.87,12.25,47.59359,-54.27349
2023-01-04 21:34:00+00:00,229.0,6.38,228.0,7.75,12.25,47.59359,-54.27349
2023-01-04 21:44:00+00:00,229.0,5.59,231.0,6.95,12.25,47.59359,-54.27349
2023-01-04 21:54:00+00:00,230.0,6.24,231.0,7.44,12.25,47.59359,-54.27349
2023-01-04 22:04:00+00:00,230.0,6.12,231.0,7.12,12.25,47.59359,-54.27349
2023-01-04 22:14:00+00:00,228.0,5.9,225.0,7.08,12.17,47.59359,-54.27349
2023-01-04 22:24:00+00:00,229.0,6.56,232.0,7.42,12.17,47.59359,-54.27349
2023-01-04 22:34:00+00:00,223.0,6.14,225.0,6.69,12.17,47.59359,-54.27349
2023-01-04 22:44:00+00:00,240.0,5.87,240.0,6.64,12.17,47.59359,-54.27349
2023-01-04 22:54:00+00:00,230.0,5.77,230.0,6.48,12.17,47.59359,-54.27349
2023-01-04 23:04:00+00:00,228.0,5.58,227.0,6.8,12.17,47.59359,-54.27349
2023-01-04 23:14:00+00:00,222.0,5.13,228.0,5.77,12.17,47.59359,-54.27349
2023-01-04 23:24:00+00:00,229.0,5.01,233.0,5.66,12.17,47.59359,-54.27349
2023-01-04 23:34:00+00:00,242.0,5.17,240.0,5.77,12.17,47.59359,-54.27349
2023-01-04 23:44:00+00:00,243.0,5.37,242.0,6.03,12.17,47.59359,-54.27349
2023-01-04 23:54:00+00:00,249.0,6.54,250.0,7.56,12.17,47.59359,-54.27349
